Theta_e
289 289 288 288 288 288 287 286 286 285 284 283 283 283 282 282 282 282 282 281 281 281 282 281 281 281 281 281 281 281 281 281 277 279 282 283 283 283 283 285 285 285 285
288 288 288 287 287 287 286 285 285 284 284 283 282 281 281 281 281 280 279 280 279 279 280 279 279 280 279 279 279 279 278 279 277 275 278 278 279 281 281 281 282 284 284
288 287 287 287 286 286 285 285 285 283 283 281 280 280 279 279 278 279 278 279 279 279 279 278 278 278 277 277 277 276 276 277 276 275 275 277 278 279 278 279 280 281 283
287 287 286 286 286 286 285 284 283 283 281 280 280 278 278 277 277 277 278 278 279 279 279 278 277 277 276 275 275 275 275 275 275 274 274 274 275 276 277 276 275 278 277
286 286 286 286 286 285 284 283 282 280 280 279 278 277 277 276 276 276 277 277 277 277 277 277 277 277 277 277 275 275 274 273 273 272 272 272 273 272 272 275 274 275 276
285 285 285 285 284 284 283 282 280 279 278 277 276 276 276 276 275 276 277 276 276 276 275 276 276 276 276 277 277 277 276 273 272 271 271 270 272 273 274 273 273 272 270
284 284 284 284 283 282 282 280 278 277 277 276 275 275 274 275 275 276 277 276 275 275 275 274 274 275 275 274 275 276 276 277 277 275 272 272 272 274 274 273 273 273 272
283 283 283 283 281 281 280 278 277 277 275 275 274 274 274 274 275 275 275 275 275 275 274 274 273 273 274 275 274 274 275 275 275 275 275 275 275 276 275 275 275 275 275
282 283 282 282 280 280 277 277 276 276 275 274 274 273 272 272 274 275 275 274 274 274 275 275 274 274 276 278 276 275 275 275 279 280 280 281 281 281 281 278 275 274 272
282 282 282 281 280 278 277 276 276 275 274 274 273 273 272 270 273 274 274 273 273 274 275 275 277 276 278 279 276 274 272 273 274 274 275 276 277 277 278 277 276 272 272
282 281 280 279 278 277 276 275 274 273 272 271 271 271 270 270 270 274 274 273 273 273 274 274 275 277 278 278 277 273 272 275 274 272 271 272 273 274 275 277 278 277 274
279 278 276 275 275 274 272 272 271 271 269 269 269 269 271 271 271 272 274 275 276 273 273 274 275 277 277 276 274 274 275 273 268 268 268 268 269 270 273 274 274 275 275
276 274 273 272 273 272 270 270 269 269 269 270 270 270 271 272 271 274 275 275 276 274 275 276 277 275 274 272 272 273 270 268 267 266 266 267 269 270 271 271 273 273 274
273 272 271 270 270 270 271 271 271 271 270 270 271 270 270 271 271 272 272 273 275 275 275 272 272 272 272 271 269 269 269 268 267 266 267 268 269 268 268 270 270 270 270
273 272 272 271 269 270 270 271 270 272 272 271 271 270 269 269 272 274 273 273 273 275 273 269 267 267 266 267 267 267 267 267 266 267 266 265 266 267 268 269 269 269 269
272 271 272 272 271 270 271 270 273 274 273 273 273 272 271 274 275 276 276 275 276 274 268 265 265 265 265 265 265 265 266 266 266 266 265 266 266 266 266 267 268 268 267
273 272 272 269 271 270 269 269 268 271 273 273 274 275 275 275 275 276 275 275 275 269 264 264 263 264 264 264 264 264 264 265 265 265 265 265 265 266 266 266 267 267 267
267 264 270 270 269 269 268 268 267 266 265 266 270 270 271 272 273 273 274 274 267 265 262 262 262 262 263 263 263 263 263 263 263 264 264 264 265 266 266 265 266 265 266
266 267 266 266 266 265 265 265 264 264 263 263 263 265 266 269 270 272 273 268 264 262 261 261 261 261 261 261 261 261 262 262 262 262 263 264 265 266 265 265 265 266 266
262 260 260 263 263 263 262 262 262 262 262 262 262 262 263 261 259 262 264 263 261 261 260 260 260 260 260 259 260 260 260 261 261 262 263 264 265 266 265 265 265 265 266
262 261 259 260 261 261 261 261 261 261 260 260 261 262 265 260 260 262 263 263 261 260 259 259 259 259 259 259 258 259 259 260 260 261 262 263 264 265 265 265 265 265 266
260 260 260 259 259 259 260 260 260 259 259 259 259 260 265 263 263 263 262 262 261 260 259 257 257 258 258 257 257 257 257 258 259 260 261 262 263 265 265 264 264 264 264
259 259 259 259 259 258 258 258 258 258 258 258 258 258 259 259 259 260 260 260 259 258 257 256 257 256 256 256 257 258 258 257 259 260 260 260 263 264 264 263 263 263 263
259 259 259 259 258 258 257 257 258 257 257 256 256 257 258 258 259 259 259 259 258 257 256 256 255 254 255 254 256 257 258 258 259 259 260 260 264 264 262 262 262 262 263
259 258 258 258 257 257 257 257 257 257 257 257 257 258 258 258 258 258 258 258 257 255 256 256 255 254 253 252 253 253 255 257 256 258 260 263 264 261 258 258 257 261 260
259 258 258 258 257 257 257 257 257 257 257 257 258 258 259 258 258 258 258 256 256 255 255 255 254 252 252 253 253 255 256 260 260 261 265 264 259 256 256 256 255 255 257
Wind_Speed
9 8 9 8 9 8 7 8 7 7 6 5 4 3 3 3 3 3 3 3 5 5 6 6 8 8 6 6 6 7 8 8 11 15 12 12 14 15 14 13 13 13 13
10 10 9 9 9 8 8 8 7 6 5 4 3 2 2 2 2 3 4 5 6 6 7 7 8 7 9 8 7 9 9 9 10 18 15 12 13 13 14 16 13 12 12
11 10 9 9 9 9 8 8 7 6 5 4 2 2 1 1 2 2 4 5 6 6 7 7 8 8 9 7 8 9 9 10 9 11 16 11 11 11 13 13 13 13 12
11 11 11 10 9 8 8 7 7 5 6 4 3 2 2 2 2 2 4 6 7 6 7 8 8 9 9 10 10 10 10 10 10 11 12 13 11 11 11 12 12 10 12
13 12 12 10 10 9 8 8 7 6 5 3 3 4 4 3 2 3 4 6 7 8 8 9 8 9 15 14 9 10 11 10 10 11 12 13 11 12 12 10 12 12 11
14 13 11 11 9 8 8 7 7 6 5 5 5 4 4 3 3 6 6 6 8 9 9 9 9 10 11 16 18 20 17 13 13 11 12 14 16 13 12 11 11 12 14
13 12 11 9 10 9 8 7 7 6 6 6 5 5 5 5 6 8 9 7 8 9 9 10 10 8 11 11 15 20 19 21 23 17 17 16 18 15 14 15 14 14 13
12 10 9 10 10 10 9 8 7 6 7 7 6 5 5 6 9 10 9 8 8 9 9 9 10 11 10 13 14 14 15 15 17 15 17 18 18 17 17 16 17 18 15
13 12 11 11 11 11 11 10 8 7 7 6 5 6 6 6 10 11 9 7 8 8 9 9 9 10 16 22 16 15 16 15 17 23 25 29 31 32 27 15 11 11 13
11 12 11 11 11 11 10 9 7 6 6 6 6 6 7 7 12 12 9 6 7 7 8 8 13 11 20 22 15 15 16 15 16 16 14 17 18 17 27 17 12 12 12
6 7 8 8 8 8 8 7 7 7 6 6 6 6 7 8 9 13 11 7 6 6 7 7 7 16 20 23 26 13 15 18 16 12 12 11 11 11 10 10 11 10 11
7 7 7 7 6 6 8 7 6 6 6 6 6 6 6 8 12 12 13 14 13 7 8 7 8 17 21 23 18 21 23 19 8 9 10 10 10 10 10 10 13 13 12
7 6 7 7 6 7 7 7 6 6 5 6 6 6 6 5 6 13 14 14 14 10 7 13 16 17 19 14 16 19 12 7 8 9 9 10 9 11 14 13 13 14 14
7 7 6 6 6 5 5 5 5 6 6 6 6 6 5 5 5 5 5 6 12 10 12 2 8 13 13 11 7 8 6 6 8 9 9 10 10 10 10 10 11 11 11
5 5 6 5 6 6 6 5 6 6 6 5 5 5 5 6 6 10 8 8 6 8 4 1 3 5 5 5 5 6 6 7 8 8 9 10 10 10 10 10 10 11 12
5 5 5 5 5 5 5 5 13 14 14 15 16 12 8 15 17 18 16 17 18 7 1 3 4 5 6 5 6 6 6 7 7 8 9 9 10 10 11 11 10 10 11
4 5 4 3 4 4 4 4 5 6 14 16 18 19 19 18 20 20 16 18 13 2 2 3 5 5 5 5 6 6 7 7 9 8 9 10 10 10 12 10 10 10 11
5 5 1 2 2 3 3 4 4 5 6 5 9 13 15 17 18 17 20 16 3 2 2 4 5 5 5 5 5 6 6 7 8 8 9 10 10 10 11 10 10 11 11
3 2 1 1 1 2 3 4 5 5 6 6 5 8 10 17 18 19 19 6 3 3 4 5 4 5 5 5 6 6 7 7 8 9 9 9 10 10 11 10 11 14 14
3 2 0 1 2 3 3 4 5 6 6 6 6 7 6 3 5 6 7 4 4 5 5 5 4 5 5 5 5 5 6 7 7 7 9 9 10 9 10 11 10 11 11
1 1 2 2 3 3 4 5 5 5 6 7 7 7 14 8 7 7 7 5 5 5 4 4 4 5 5 5 5 6 6 7 7 8 8 9 10 10 9 9 10 10 10
2 1 1 1 2 4 4 5 5 6 7 7 8 8 18 9 7 6 4 3 4 4 3 3 4 5 4 4 4 5 6 7 7 8 8 9 10 9 9 9 9 9 9
1 0 1 2 3 3 4 5 5 6 7 8 8 8 7 7 7 6 5 5 4 4 3 4 5 5 4 4 5 6 7 7 8 8 9 9 10 8 8 8 9 9 9
1 2 3 3 3 3 4 5 5 6 7 7 8 8 7 7 7 6 5 5 5 5 5 5 6 7 6 5 6 6 7 8 7 9 11 9 9 7 6 6 7 9 8
2 2 3 3 3 4 5 5 6 7 7 7 7 7 7 7 6 6 5 5 5 5 6 6 5 7 9 10 10 10 11 15 11 12 9 11 7 7 4 4 4 6 6
2 2 3 3 4 5 5 6 6 7 7 7 7 7 6 6 6 5 5 5 5 6 7 5 7 10 10 9 11 12 12 14 12 13 10 5 4 4 3 4 6 3 5
Wind_Direction
153 146 140 141 138 137 136 139 146 138 136 128 111 104 87 65 41 8 359 346 339 330 327 326 317 320 311 310 307 302 296 295 289 293 294 298 300 299 301 304 302 298 296
163 158 161 158 154 155 153 151 153 145 150 136 133 125 86 67 28 356 343 338 326 321 321 318 313 319 310 310 307 306 299 298 294 293 298 305 302 306 302 301 296 293 296
166 171 170 171 175 169 161 160 168 160 149 145 153 154 137 57 354 325 324 310 308 307 308 311 308 313 307 308 307 305 306 301 294 289 295 303 304 308 307 301 302 299 290
175 182 183 183 179 175 172 164 169 173 163 170 179 171 235 255 263 291 304 303 306 308 306 304 305 302 302 314 306 303 302 303 301 295 294 300 303 307 304 310 305 308 303
185 190 190 182 180 180 170 172 171 176 168 178 194 208 230 253 257 304 302 305 303 303 299 297 293 304 301 296 296 300 303 300 297 296 293 297 304 305 299 301 298 300 297
189 193 187 185 178 177 173 174 172 180 178 191 209 227 247 251 251 281 289 294 296 295 295 297 301 301 298 306 302 300 297 296 292 292 290 287 289 290 292 293 296 296 295
187 189 189 174 170 177 173 171 184 186 191 208 220 225 245 260 264 272 287 289 290 287 292 296 301 302 306 300 301 300 296 286 284 285 282 277 284 287 289 287 282 280 281
185 183 172 169 172 175 176 180 183 185 198 212 218 226 242 252 258 269 278 279 279 281 284 289 293 299 298 299 292 287 282 276 270 270 268 275 276 277 271 270 271 270 272
190 184 180 177 177 178 183 183 182 187 195 206 212 221 232 252 259 262 272 276 274 279 283 281 285 288 292 298 298 299 289 286 290 299 299 294 292 293 294 292 286 291 291
189 190 179 178 179 183 176 177 173 182 197 207 217 221 228 247 255 255 260 269 272 280 283 285 287 289 300 306 310 312 307 308 308 302 300 298 296 294 291 285 280 275 278
155 142 155 164 171 171 162 166 165 181 196 202 220 232 237 238 247 251 255 255 264 275 282 289 289 299 306 319 314 313 302 306 317 318 306 297 300 298 293 293 288 275 273
133 144 148 150 159 158 158 161 172 182 196 212 229 244 239 233 233 248 250 251 261 271 276 279 286 296 320 313 316 311 317 329 313 306 305 303 305 303 305 308 304 297 289
138 148 148 148 162 161 167 170 182 195 216 219 223 232 239 220 226 249 256 259 267 271 267 272 303 316 311 315 308 314 335 315 312 311 306 300 302 309 304 300 293 287 283
154 152 145 157 169 164 185 192 201 205 210 222 231 236 239 233 232 236 232 260 269 272 284 333 298 307 301 303 305 315 313 314 312 304 305 308 308 306 299 298 296 296 289
134 143 165 179 183 183 209 206 214 224 227 230 237 237 238 239 237 239 234 244 256 271 293 291 306 291 290 295 299 302 310 313 308 310 311 306 303 306 305 306 302 302 295
154 164 179 182 180 209 211 222 236 241 237 238 243 231 228 241 250 257 262 272 276 294 309 277 274 279 283 298 301 306 311 308 310 313 304 306 307 307 306 307 301 300 299
148 141 152 196 196 209 224 241 255 245 247 258 260 259 260 261 264 263 261 269 282 308 216 250 264 272 282 290 295 301 306 308 309 305 307 309 304 299 307 306 305 302 301
83 56 139 174 231 247 254 270 277 280 281 281 270 268 274 272 270 269 265 267 207 207 234 247 257 267 276 285 290 295 300 304 307 307 308 303 304 300 308 308 306 305 302
93 93 75 356 301 316 302 279 270 270 267 269 274 270 268 270 269 265 261 264 228 223 238 245 253 263 271 280 283 288 291 294 296 298 301 303 307 305 311 307 305 306 305
95 102 46 276 263 253 257 259 265 265 265 265 265 264 270 219 245 241 238 220 228 230 232 238 248 258 265 270 276 283 288 290 295 298 300 300 305 310 309 309 309 311 311
80 93 62 321 290 283 280 277 279 276 273 271 271 270 261 239 256 251 238 215 224 231 232 237 244 253 256 264 269 275 277 287 289 292 297 301 306 308 313 309 310 311 313
75 48 23 302 296 282 278 281 280 279 278 277 276 275 278 279 272 252 248 238 238 239 234 240 250 252 249 257 267 275 278 282 286 288 297 301 299 312 315 315 317 321 319
78 354 261 258 258 265 264 262 272 273 275 276 275 274 268 263 261 262 257 245 243 242 236 232 247 256 248 245 248 254 266 271 277 288 291 295 296 310 316 317 321 323 329
200 246 264 269 271 286 286 281 281 278 274 273 275 273 266 260 258 256 250 250 249 249 243 238 238 246 257 254 259 254 257 264 270 279 281 280 291 303 308 314 318 319 326
241 256 274 289 293 293 294 286 280 278 272 269 269 267 266 261 256 251 249 241 241 245 250 246 245 249 252 251 252 255 262 270 263 265 270 273 280 288 286 291 308 315 327
258 264 278 286 282 280 281 282 282 280 279 279 277 276 273 272 270 269 262 250 248 248 249 250 248 245 251 259 259 259 263 271 277 276 277 256 253 267 281 291 305 303 315